TimeCST,TemperatureF,Dew PointF,Humidity,Sea Level PressureIn,VisibilityMPH,Wind Direction,Wind SpeedMPH,Gust SpeedMPH,PrecipitationIn,Events,Conditions,WindDirDegrees,DateUTC
12:14 AM,42.8,41.0,93,29.54,4.0,North,6.9,-,N/A,,Partly Cloudy,350,2013-12-04 06:14:00
12:17 AM,42.8,42.8,100,29.54,0.2,NNW,5.8,-,N/A,Fog,Fog,340,2013-12-04 06:17:00
12:53 AM,44.1,43.0,96,29.53,0.2,North,5.8,-,N/A,Fog,Fog,360,2013-12-04 06:53:00
1:09 AM,42.8,42.8,100,29.52,0.2,North,9.2,-,N/A,Fog,Fog,350,2013-12-04 07:09:00
1:53 AM,44.1,43.0,96,29.52,0.2,North,6.9,-,N/A,Fog,Fog,360,2013-12-04 07:53:00
2:05 AM,44.6,42.8,93,29.52,0.2,North,5.8,-,N/A,Fog,Fog,360,2013-12-04 08:05:00
2:47 AM,44.6,44.6,100,29.52,0.2,North,9.2,-,N/A,Fog,Fog,10,2013-12-04 08:47:00
2:53 AM,44.1,44.1,100,29.51,0.2,North,8.1,-,N/A,Fog,Fog,10,2013-12-04 08:53:00
3:16 AM,42.8,42.8,100,29.53,0.2,North,11.5,-,N/A,,Mist,350,2013-12-04 09:16:00
3:53 AM,39.9,39.9,100,29.54,0.2,NNW,13.8,-,N/A,,Mist,340,2013-12-04 09:53:00
4:53 AM,36.0,36.0,100,29.59,0.2,NNW,19.6,28.8,0.00,,Overcast,340,2013-12-04 10:53:00
5:10 AM,37.4,37.4,100,29.59,3.0,NNW,21.9,29.9,0.00,,Overcast,340,2013-12-04 11:10:00
5:53 AM,33.1,33.1,100,29.63,5.0,NNW,23.0,35.7,0.00,,Overcast,330,2013-12-04 11:53:00
6:53 AM,32.0,32.0,100,29.67,9.0,NNW,24.2,32.2,N/A,,Overcast,330,2013-12-04 12:53:00
7:53 AM,30.0,30.0,100,29.69,10.0,NNW,26.5,31.1,N/A,,Overcast,330,2013-12-04 13:53:00
8:36 AM,28.4,28.4,100,29.70,10.0,NNW,23.0,31.1,N/A,,Overcast,340,2013-12-04 14:36:00
8:53 AM,30.0,28.9,96,29.73,10.0,NNW,18.4,27.6,N/A,,Overcast,340,2013-12-04 14:53:00
9:53 AM,28.9,28.0,96,29.77,10.0,NNW,16.1,-,N/A,,Overcast,340,2013-12-04 15:53:00
10:53 AM,30.0,28.0,92,29.80,10.0,NNW,16.1,-,N/A,,Overcast,340,2013-12-04 16:53:00
11:53 AM,28.9,26.1,89,29.81,10.0,NW,16.1,-,N/A,,Overcast,320,2013-12-04 17:53:00
12:50 PM,28.4,24.8,86,29.79,10.0,NW,16.1,-,N/A,,Overcast,320,2013-12-04 18:50:00
12:53 PM,30.0,24.1,79,29.82,10.0,NNW,15.0,-,N/A,,Overcast,330,2013-12-04 18:53:00
1:53 PM,28.9,21.9,75,29.81,10.0,NNW,20.7,24.2,N/A,,Overcast,330,2013-12-04 19:53:00
2:53 PM,28.0,21.0,75,29.83,10.0,NNW,19.6,24.2,N/A,,Overcast,340,2013-12-04 20:53:00
3:53 PM,27.0,19.0,72,29.89,10.0,NNW,18.4,-,N/A,,Overcast,330,2013-12-04 21:53:00
4:53 PM,27.0,19.9,75,29.92,10.0,NNW,17.3,-,N/A,,Mostly Cloudy,330,2013-12-04 22:53:00
5:53 PM,26.1,18.0,71,29.95,10.0,NNW,13.8,-,N/A,,Mostly Cloudy,340,2013-12-04 23:53:00
6:53 PM,26.1,17.1,69,29.99,10.0,NNW,12.7,21.9,N/A,,Mostly Cloudy,330,2013-12-05 00:53:00
7:53 PM,26.1,17.1,69,30.01,10.0,North,11.5,-,N/A,,Mostly Cloudy,350,2013-12-05 01:53:00
8:53 PM,26.1,16.0,66,30.04,10.0,NNW,9.2,-,N/A,,Overcast,340,2013-12-05 02:53:00
9:53 PM,26.1,10.9,53,30.08,10.0,North,21.9,28.8,N/A,,Overcast,350,2013-12-05 03:53:00
10:53 PM,25.0,9.0,51,30.11,10.0,NNW,26.5,32.2,N/A,,Mostly Cloudy,340,2013-12-05 04:53:00
11:53 PM,23.0,9.0,55,30.14,10.0,NNW,21.9,32.2,N/A,,Mostly Cloudy,340,2013-12-05 05:53:00